Weather History for Belize, Belize

Change the Weather History Date:

Thursday, July 26, 2012

  Actual Average Record
Temperature  
Mean Temperature 84 °F -  
Max Temperature 87 °F 89 °F 91 °F (2006)
Min Temperature 80 °F 76 °F 73 °F (1996)
Cooling Degree Days 18    
Growing Degree Days 34 (Base 50)    
Moisture  
Dew Point 78 °F    
Average Humidity 79    
Maximum Humidity 89    
Minimum Humidity 62    
Precipitation  
Precipitation 0.04 in 0.26 in - ()
Sea Level Pressure  
Sea Level Pressure 29.93 in    
Wind  
Wind Speed 6 mph ()    
Max Wind Speed 14 mph    
Max Gust Speed -    
Visibility 7.9 miles    
Events Rain , Thunderstorm    
Averages and records for this station are not official NWS values.
T = Trace of Precipitation, MM = Missing Value Source: Averaged Metar Reports

Daily Weather History Graph

Daily Weather History Graph

Search for Another Location

Airport:

Trip Planner

Search our weather history database for the weather conditions in past years. The results will help you decide how hot, cold, wet, or windy it might be!

Date:

Astronomy

Jul. 26, 2012 Rise Set
Actual Time 5:30 AM CST 6:28 PM CST
Civil Twilight 5:07 AM CST 6:51 PM CST
Nautical Twilight 4:39 AM CST 7:19 PM CST
Astronomical Twilight 4:11 AM CST 7:47 PM CST
Moon 12:21 PM CST (7/26) No Moon Set
Length of Visible Light 13h 44m
Length of Day
12h 58m
First Quarter, 54% of the Moon is Illuminated
Jul 26
First Quarter
Aug 1
Full
Aug 9
Last Quarter
Aug 17
New
Aug 24
First Quarter

Hourly Weather History & Observations

Time (CST) Temp. Heat Index Dew Point Humidity Pressure Visibility Wind Dir Wind Speed Gust Speed Precip Events Conditions
12:00 AM 83 °F - 78 °F 80% 29.96 in 12 mi East 13.8 mph - -  
3:00 AM 81 °F - 77 °F 83% 29.91 in 12 mi East 5.8 mph - -   Scattered Clouds
5:00 AM 80.6 °F 87.1 °F 77.0 °F 89% 29.89 in 6.2 mi East 4.6 mph - N/A   Partly Cloudy
6:00 AM 80 °F - 76 °F 84% 29.92 in 12 mi Calm Calm - -  
6:00 AM 80.6 °F 87.1 °F 77.0 °F 89% 29.92 in 6.2 mi Calm Calm - N/A   Partly Cloudy
7:00 AM 84.2 °F 94.1 °F 77.0 °F 79% 29.92 in 6.2 mi East 6.9 mph - N/A   Partly Cloudy
8:00 AM 86.0 °F 96.9 °F 77.0 °F 74% 29.95 in 6.2 mi East 11.5 mph - N/A   Mostly Cloudy
9:00 AM 87 °F - 76 °F 62% 29.97 in 12 mi ESE 6.9 mph - -   Scattered Clouds
9:00 AM 86.0 °F 95.1 °F 75.2 °F 70% 29.96 in 6.2 mi ESE 6.9 mph - N/A   Partly Cloudy
10:00 AM 87.8 °F 99.7 °F 77.0 °F 70% 29.98 in 6.2 mi East 8.1 mph - N/A   Scattered Clouds
11:00 AM 87.8 °F 99.7 °F 77.0 °F 70% 29.96 in 3.1 mi East 8.1 mph - N/A Rain Light Rain Showers
12:00 PM 86.0 °F 99.3 °F 78.8 °F 79% 29.94 in 6.2 mi ENE 8.1 mph - N/A   Scattered Clouds
1:00 PM 87.8 °F 102.5 °F 78.8 °F 75% 29.93 in 6.2 mi ENE 10.4 mph - N/A Thunderstorm Thunderstorm
2:00 PM 82.4 °F 92.4 °F 78.8 °F 89% 29.92 in 6.2 mi ENE 6.9 mph - N/A Rain , Thunderstorm Light Thunderstorms and Rain
3:00 PM 85 °F - 80 °F 81% 29.92 in 11 mi East 8.1 mph - -  
3:00 PM 86.0 °F 101.9 °F 80.6 °F 84% 29.92 in 6.2 mi East 8.1 mph - N/A   Mostly Cloudy
4:00 PM 84.2 °F 96.1 °F 78.8 °F 84% 29.92 in 6.2 mi East 6.9 mph - N/A   Mostly Cloudy
5:00 PM 84.2 °F 96.1 °F 78.8 °F 84% 29.91 in 6.2 mi East 6.9 mph - N/A   Scattered Clouds
6:00 PM 84 °F - 79 °F 80% 29.92 in 12 mi East 6.9 mph - -   Partly Cloudy
6:00 PM 84.2 °F 96.1 °F 78.8 °F 84% 29.92 in 6.2 mi East 6.9 mph - N/A   Mostly Cloudy
9:00 PM 84 °F - 78 °F 78% 29.95 in 12 mi East 9.2 mph - -   Mostly Cloudy